TimeCST,TemperatureF,Dew PointF,Humidity,Sea Level PressureIn,VisibilityMPH,Wind Direction,Wind SpeedMPH,Gust SpeedMPH,PrecipitationIn,Events,Conditions,WindDirDegrees,DateUTC
12:53 AM,32.0,12.9,45,30.00,10.0,South,13.8,-,N/A,,Clear,180,2012-01-15 06:53:00
1:53 AM,34.0,12.9,42,29.96,10.0,South,17.3,-,N/A,,Clear,190,2012-01-15 07:53:00
2:53 AM,30.9,12.9,47,29.94,10.0,South,11.5,-,N/A,,Clear,170,2012-01-15 08:53:00
3:53 AM,33.8,14.0,44,29.87,10.0,South,13.8,-,N/A,,Clear,180,2012-01-15 09:53:00
4:53 AM,30.9,14.0,50,29.89,10.0,South,12.7,-,N/A,,Clear,180,2012-01-15 10:53:00
5:53 AM,30.0,15.1,54,29.88,10.0,South,12.7,-,N/A,,Clear,190,2012-01-15 11:53:00
6:53 AM,28.9,15.1,56,29.89,10.0,South,11.5,-,N/A,,Clear,190,2012-01-15 12:53:00
7:53 AM,30.0,16.0,56,29.88,10.0,South,11.5,-,N/A,,Clear,190,2012-01-15 13:53:00
8:53 AM,32.0,17.1,54,29.88,10.0,SSW,11.5,-,N/A,,Clear,200,2012-01-15 14:53:00
9:53 AM,37.4,17.6,45,29.82,10.0,SSW,12.7,20.7,N/A,,Clear,210,2012-01-15 15:53:00
10:53 AM,43.0,19.9,40,29.85,10.0,SSW,11.5,-,N/A,,Clear,210,2012-01-15 16:53:00
11:53 AM,50.0,21.0,32,29.81,10.0,SSW,12.7,-,N/A,,Clear,210,2012-01-15 17:53:00
12:53 PM,55.0,19.9,25,29.77,10.0,SW,15.0,-,N/A,,Clear,220,2012-01-15 18:53:00
1:53 PM,59.0,19.9,22,29.72,10.0,SSW,9.2,-,N/A,,Clear,200,2012-01-15 19:53:00
2:53 PM,61.0,19.9,21,29.72,10.0,SSW,12.7,-,N/A,,Clear,210,2012-01-15 20:53:00
3:53 PM,61.0,19.0,20,29.69,10.0,South,10.4,-,N/A,,Clear,190,2012-01-15 21:53:00
4:53 PM,55.9,19.9,25,29.70,10.0,South,12.7,-,N/A,,Clear,190,2012-01-15 22:53:00
5:53 PM,44.1,19.9,38,29.73,10.0,South,6.9,-,N/A,,Clear,190,2012-01-15 23:53:00
6:53 PM,39.0,19.9,46,29.75,10.0,South,6.9,-,N/A,,Clear,190,2012-01-16 00:53:00
7:53 PM,39.9,21.0,47,29.75,10.0,SSW,5.8,-,N/A,,Clear,210,2012-01-16 01:53:00
8:53 PM,34.0,19.9,56,29.75,10.0,SW,3.5,-,N/A,,Clear,220,2012-01-16 02:53:00
9:53 PM,32.0,19.0,59,29.73,10.0,SW,4.6,-,N/A,,Clear,220,2012-01-16 03:53:00
10:53 PM,21.9,16.0,78,29.76,10.0,North,10.4,-,N/A,,Clear,360,2012-01-16 04:53:00
11:53 PM,26.1,17.1,69,29.75,10.0,Calm,Calm,-,N/A,,Clear,0,2012-01-16 05:53:00